RH
15 16 16 17 18 18 19 20 21 22 21 24 26 27 38 50 73 99 99 88 88 99 104 99 96 96 100 102 95 86 81 77 83 91 95 92 86 92 101 102 99 99 100 104 102 100 103 99 92 85 95 97 79 78 83 82 78 77 82 82 73 70 73 67 57 52 56 66 60 53 59 61 59 57 53 60 62 59 61 63 61 57 54 49 42 38 36 37 41 44 47 49 46 42 36 30 28
15 16 17 18 18 19 20 21 22 22 23 28 27 27 45 70 88 97 98 91 85 97 102 99 99 100 102 100 102 104 94 81 75 87 100 96 98 100 101 99 87 92 100 103 104 100 103 102 99 97 99 94 79 77 91 100 98 99 96 91 91 88 88 83 76 70 71 84 81 72 78 85 89 84 74 75 81 89 95 95 94 86 74 64 57 53 48 43 42 43 43 43 40 37 34 33 32
15 17 17 18 18 21 21 23 23 22 25 26 31 39 51 70 86 95 98 99 97 100 102 99 100 102 101 102 101 96 95 93 79 76 91 98 99 99 102 100 90 97 103 102 104 101 101 96 96 103 100 100 97 87 90 99 101 103 101 96 94 92 90 92 93 89 83 86 89 84 79 80 89 91 83 78 78 87 95 97 100 98 88 78 72 67 61 54 48 44 43 41 39 37 36 36 35
16 17 17 19 21 23 23 25 24 27 29 28 41 51 61 76 86 99 100 99 101 101 101 100 104 95 92 106 99 85 96 99 85 79 87 96 99 99 94 91 97 101 102 97 90 93 95 85 92 104 100 100 105 102 96 97 99 96 96 90 85 89 83 77 84 91 89 84 87 91 89 82 86 90 83 82 78 76 81 82 82 83 80 73 67 61 57 54 50 46 42 40 39 38 37 37 39
17 18 20 21 22 24 24 26 26 32 37 41 56 60 77 97 94 97 100 100 100 100 101 99 98 81 73 89 77 67 94 104 94 93 96 101 102 100 85 82 97 99 102 99 90 98 99 93 99 102 101 101 101 103 98 89 90 90 88 80 79 94 89 72 71 74 74 69 69 76 84 84 87 88 78 76 76 70 71 71 68 64 63 62 59 54 49 47 46 45 43 41 40 40 41 43 44
19 21 23 24 25 25 26 29 30 33 40 50 65 70 88 101 96 99 101 102 101 101 100 87 72 60 57 65 66 65 83 100 99 97 101 105 105 101 94 92 97 97 103 104 99 99 99 99 97 98 102 103 100 100 100 91 92 96 92 85 84 92 89 79 70 63 61 60 59 58 62 65 65 65 61 60 59 57 59 62 64 62 61 61 61 58 53 49 47 46 45 44 44 45 47 47 47
24 26 27 27 28 29 30 34 36 44 57 67 76 84 94 98 99 102 100 101 101 96 95 88 70 64 67 70 85 90 87 92 93 97 102 103 104 102 102 100 94 93 94 97 101 98 97 94 89 100 103 98 99 94 93 92 91 90 87 88 84 83 81 75 66 57 55 56 55 51 48 48 46 45 44 43 41 42 44 47 52 54 55 55 57 57 54 51 48 47 47 46 46 47 47 46 45
30 31 32 33 35 39 39 40 52 71 86 91 94 97 96 100 102 101 100 100 100 94 94 99 91 89 93 95 103 100 95 97 95 95 95 98 105 104 103 103 100 97 86 80 89 93 95 95 94 104 99 89 87 74 67 72 73 72 76 79 73 70 68 63 58 51 51 50 45 42 43 44 45 45 43 41 39 38 38 38 39 40 41 42 45 46 44 46 46 46 46 45 46 46 45 44 44
39 41 43 45 48 52 49 50 74 93 98 100 100 100 98 99 100 100 102 101 102 101 102 103 101 101 99 99 94 91 98 101 101 97 91 95 102 102 101 101 102 102 91 77 81 91 97 98 97 102 99 87 82 76 70 70 70 70 71 67 60 57 57 56 54 51 49 46 44 46 54 63 67 66 62 57 51 45 41 37 36 35 35 35 36 36 37 42 44 47 50 54 57 56 52 52 61
52 57 61 63 63 65 61 63 89 102 97 99 97 99 100 98 100 102 100 98 100 101 103 103 105 101 89 88 74 79 103 100 101 103 98 99 100 101 103 101 100 102 101 92 85 90 98 94 92 103 100 79 72 80 81 78 72 67 63 59 60 61 61 58 53 54 56 56 61 70 81 89 92 92 90 88 82 73 65 58 55 51 47 44 41 42 45 51 58 66 72 75 73 67 62 63 74
75 79 81 80 76 76 75 77 95 102 97 99 99 102 102 100 102 100 94 91 94 99 104 100 104 98 84 94 81 73 99 103 100 101 100 101 92 87 97 104 99 100 101 101 94 87 90 91 98 104 93 79 74 73 72 70 64 57 58 65 68 64 59 54 56 63 69 77 85 95 98 100 101 100 102 104 102 95 89 85 81 76 69 60 55 56 60 70 82 86 83 78 73 67 66 69 79
96 96 93 92 89 84 82 84 94 101 100 101 102 102 100 101 100 95 94 94 95 96 101 101 103 98 82 92 96 86 97 103 100 101 102 104 87 63 75 99 101 101 99 102 102 93 91 94 102 100 95 97 87 74 70 65 60 59 65 70 64 55 51 56 68 74 81 93 101 102 95 96 99 98 101 104 104 101 97 96 93 87 80 71 65 62 65 78 89 87 77 73 76 77 81 88 95
103 103 97 97 97 89 84 86 92 99 99 99 101 102 100 100 100 97 99 101 100 90 91 100 101 102 95 91 96 97 101 102 100 102 103 105 90 55 54 83 96 100 99 101 101 95 96 96 100 102 102 104 94 86 85 80 78 77 73 65 53 51 61 73 79 81 89 97 101 96 87 90 91 93 103 107 108 107 105 103 98 91 86 85 80 73 74 83 86 80 78 84 93 97 101 103 101
101 100 96 96 96 89 85 89 97 101 99 102 100 99 100 99 100 102 102 102 103 97 94 99 98 101 103 97 92 89 95 101 98 92 95 103 96 77 74 85 93 97 99 101 95 90 96 97 101 105 95 92 97 98 96 99 97 82 63 51 53 69 87 92 85 84 94 97 94 90 90 93 86 91 103 103 101 99 103 105 99 92 90 94 92 85 85 90 88 80 84 95 104 107 108 105 101
90 90 91 96 95 85 83 89 98 102 99 101 94 90 99 101 99 101 103 103 101 95 92 98 100 98 97 101 100 91 87 85 78 67 76 98 100 97 99 97 99 101 97 96 94 92 97 100 104 103 91 89 97 99 100 102 95 76 56 48 55 79 100 95 79 77 89 95 92 88 90 90 88 95 101 104 97 81 84 91 94 96 91 91 89 82 83 86 89 87 92 101 102 103 107 102 102
83 84 84 91 93 85 88 90 92 98 93 92 92 93 100 100 100 101 101 103 101 87 76 86 96 92 88 98 103 98 94 80 73 74 81 99 103 100 102 101 103 102 96 94 95 95 98 101 101 91 84 94 100 100 102 98 96 89 77 68 58 65 85 89 85 84 86 89 88 84 78 79 89 96 95 97 92 79 81 82 87 102 101 93 85 79 78 78 86 93 99 101 98 102 105 102 102
87 88 86 92 96 91 96 94 91 98 92 89 96 102 102 100 103 103 100 98 101 93 82 84 91 92 88 94 101 99 100 91 91 96 91 96 102 101 103 103 100 98 97 98 98 98 99 101 100 84 73 91 100 96 99 99 100 101 98 96 79 62 64 76 89 96 96 95 93 86 77 80 87 90 88 81 76 82 94 90 90 103 105 95 87 84 81 79 85 95 101 100 100 105 105 102 100
93 96 95 99 101 97 100 98 97 103 99 94 95 99 101 101 102 100 100 100 101 100 97 98 95 93 90 89 92 93 98 96 92 95 91 94 103 103 102 102 99 98 99 100 101 99 96 99 104 89 72 92 103 90 92 102 102 100 100 101 99 86 74 75 79 85 91 90 88 85 82 84 82 85 92 83 76 89 102 101 98 103 103 97 95 94 93 93 94 96 100 99 100 104 105 101 96
95 100 99 99 100 96 99 101 100 100 99 97 93 96 100 100 101 100 99 98 98 95 92 97 93 87 81 72 70 76 89 93 90 95 99 100 102 102 101 100 99 100 100 102 102 95 91 96 104 95 81 93 101 89 91 101 102 101 101 100 105 103 89 77 70 72 76 73 72 73 73 73 71 77 86 84 79 86 91 85 80 86 95 98 99 102 103 105 105 101 100 101 100 100 104 103 99
93 102 95 89 94 96 101 102 97 97 99 99 97 100 103 99 98 97 92 90 94 90 84 88 84 73 63 55 61 66 76 91 97 99 101 98 99 100 100 99 100 101 100 102 101 97 97 100 103 97 88 82 79 89 100 100 99 100 102 104 99 89 79 71 64 65 66 64 65 68 67 66 67 68 69 70 66 65 66 60 58 68 85 95 91 94 103 104 104 101 99 101 100 100 102 104 105
88 99 98 93 96 98 96 94 92 95 99 101 101 101 100 90 81 79 84 96 100 86 79 82 68 62 63 61 65 65 74 98 102 98 100 100 102 101 101 102 101 102 103 103 102 101 101 101 101 96 88 76 68 86 103 101 103 101 96 93 83 74 78 80 75 71 70 68 66 66 66 64 62 58 53 51 49 49 51 51 55 61 78 93 88 89 100 103 104 101 100 100 99 101 100 101 104
78 80 83 82 83 83 82 88 92 93 93 93 94 100 103 87 73 76 88 101 105 86 71 72 65 72 85 77 73 72 84 102 99 98 102 102 105 104 102 102 98 97 99 100 99 101 103 99 101 98 84 76 72 76 84 87 93 94 85 80 78 78 82 85 82 79 77 74 71 68 67 64 59 54 50 45 43 45 49 54 58 59 65 77 84 93 100 101 103 100 100 100 97 100 100 100 102
64 69 79 81 83 78 82 92 90 86 88 89 90 92 94 82 76 90 102 103 106 93 68 73 86 93 95 86 89 96 98 103 100 101 103 102 104 98 87 88 93 95 98 100 98 95 96 94 101 101 81 67 64 59 60 67 73 78 78 76 77 76 74 73 72 72 72 73 73 71 68 65 60 55 50 46 47 52 58 62 63 62 62 66 77 92 101 103 104 101 100 100 98 99 99 100 101
79 87 97 97 92 76 76 81 72 75 83 89 93 89 86 85 92 103 104 93 89 79 66 84 100 94 96 97 100 104 101 101 100 101 103 99 98 96 88 85 87 85 85 90 89 82 81 81 85 91 81 67 62 61 68 78 82 84 83 82 79 74 71 69 67 67 68 70 71 71 68 63 59 55 50 47 55 65 71 73 70 66 70 78 88 96 101 104 105 105 102 101 100 100 100 101 101
101 100 100 90 82 76 79 82 79 86 88 89 96 98 97 99 104 97 83 81 80 72 73 96 101 87 95 102 99 101 102 101 100 100 101 99 96 98 99 96 88 80 79 81 82 80 79 79 72 72 76 75 78 83 90 97 100 98 89 82 74 68 68 67 66 64 62 62 64 63 60 57 53 49 48 51 63 75 80 81 79 74 77 88 100 106 107 107 107 105 103 101 100 99 100 101 101
91 92 99 87 77 80 83 87 93 98 96 97 101 100 100 101 96 78 71 88 93 81 84 99 98 90 96 102 101 101 101 99 100 101 101 101 94 85 91 101 99 94 92 94 95 88 83 87 84 78 81 90 97 100 101 101 102 96 81 68 62 60 61 62 63 60 55 52 53 56 55 54 54 53 56 63 74 82 82 84 90 89 87 90 97 103 106 108 107 104 104 102 101 100 99 99 101
92 91 95 90 84 85 81 82 89 96 93 90 92 91 95 95 77 68 83 101 98 82 84 98 99 95 99 101 101 101 99 98 102 103 101 98 85 76 88 100 100 100 101 101 98 84 74 78 82 81 83 92 96 92 91 91 87 79 67 62 62 64 67 70 72 70 65 58 57 66 73 72 72 73 76 83 88 87 82 85 96 100 97 98 99 100 102 104 104 104 104 103 102 101 98 96 97
101 98 92 90 94 98 93 93 94 97 93 87 89 87 88 80 62 78 102 101 99 92 89 96 93 94 103 103 102 103 99 97 99 95 88 86 79 79 88 88 85 89 93 89 79 69 68 70 71 74 78 81 80 74 72 70 68 66 65 66 64 61 62 67 75 80 78 74 71 75 83 86 86 86 88 92 93 87 80 84 97 103 101 101 101 101 102 104 105 105 104 104 104 103 101 96 94
100 101 96 92 97 101 95 99 101 98 91 84 91 84 75 70 62 90 111 100 101 100 98 96 79 77 94 99 98 93 84 83 84 75 68 67 64 66 67 62 60 63 69 69 64 66 71 72 70 71 73 72 70 67 66 65 67 68 67 61 54 51 50 54 65 75 77 75 72 70 73 77 80 87 92 96 95 87 79 79 89 99 102 103 103 102 103 105 105 103 103 103 102 102 103 100 98
100 101 102 92 93 96 89 95 97 97 90 75 82 82 72 78 74 85 102 102 102 98 100 101 84 78 86 93 91 77 63 62 62 59 58 59 60 64 65 66 68 66 66 68 70 73 73 72 71 70 72 72 69 68 68 69 69 69 64 55 49 49 50 52 56 64 71 70 66 64 64 67 70 76 85 93 95 90 82 77 79 85 90 94 96 97 98 102 103 104 106 105 104 103 102 102 102
100 101 102 82 77 88 92 97 91 97 102 79 79 87 82 89 84 82 94 100 102 101 100 101 97 96 96 99 97 81 63 54 55 56 58 66 75 82 87 92 90 79 72 74 76 76 75 75 73 71 73 72 69 67 67 67 67 66 63 56 49 48 51 53 54 58 65 67 65 60 58 61 64 65 69 75 79 81 79 76 75 75 78 78 78 79 79 82 85 89 95 98 102 103 103 104 104
98 100 102 83 78 95 101 94 83 94 106 83 75 87 90 92 88 87 97 100 100 101 101 100 100 100 101 101 101 97 80 59 56 58 60 75 89 95 97 93 85 74 71 77 80 77 75 71 66 63 63 64 63 61 61 59 57 57 58 55 50 48 47 48 50 52 56 63 70 68 65 65 64 61 60 61 62 64 64 63 63 63 64 65 66 67 67 67 67 69 72 75 79 83 87 91 93
99 100 101 89 88 102 103 93 85 90 95 79 72 86 89 85 86 91 98 101 100 100 101 100 98 97 101 102 99 101 93 74 72 77 81 92 99 96 88 76 68 66 66 67 70 69 63 58 56 56 55 56 55 55 56 53 50 49 50 50 49 48 46 45 47 51 53 61 75 84 88 88 83 75 69 68 67 68 68 62 58 57 54 53 54 54 55 56 57 58 59 61 62 63 64 66 69
98 98 95 87 89 100 102 100 96 89 80 75 76 86 86 78 79 86 93 97 96 99 101 99 100 99 99 104 99 97 99 95 93 94 91 86 81 71 61 60 60 61 62 58 60 68 68 68 69 68 65 63 59 56 56 53 48 47 46 47 47 47 49 49 46 52 57 58 65 76 87 93 94 90 82 80 82 82 81 74 70 69 66 60 56 53 50 48 48 49 48 48 48 49 48 47 48
99 98 93 90 95 102 103 103 103 94 80 79 80 77 80 82 78 75 78 83 86 95 102 101 100 91 85 94 99 101 100 95 91 91 89 79 74 72 72 78 71 64 72 72 75 87 91 93 94 91 87 85 79 70 70 69 63 59 59 61 59 58 65 63 50 48 56 58 56 56 60 65 72 78 77 78 86 88 83 78 78 82 81 74 67 63 59 56 57 57 56 54 49 45 44 41 39
95 91 90 96 101 101 103 101 100 97 86 85 89 80 74 76 76 74 68 66 75 86 91 95 94 85 73 73 89 100 89 82 92 98 98 96 92 90 92 95 82 75 89 94 94 101 101 101 102 98 96 97 89 80 88 93 88 83 83 87 87 83 89 90 78 71 75 82 75 61 56 56 58 65 68 69 73 77 75 73 73 80 86 82 75 73 72 73 73 72 73 76 73 68 62 57 54
88 87 91 99 102 99 100 100 100 102 93 88 93 90 81 74 74 80 74 65 64 66 70 74 78 81 73 64 75 86 77 78 96 101 99 102 101 96 96 97 88 85 99 103 99 100 100 101 101 98 99 100 95 94 98 97 97 100 95 95 95 90 91 93 92 91 90 88 79 69 70 73 74 73 69 61 56 58 60 61 61 67 77 81 78 76 78 81 83 82 82 84 83 82 82 80 75
87 87 96 100 100 100 99 101 101 100 94 84 80 80 82 85 85 84 86 83 73 69 71 66 65 72 75 79 86 88 89 91 96 98 99 101 101 100 100 102 98 97 102 101 100 102 100 100 101 101 101 97 91 90 83 71 73 77 70 65 63 60 59 61 63 66 64 57 50 50 55 60 64 65 62 53 48 50 52 52 52 53 59 65 66 66 68 75 85 91 88 85 79 77 84 87 82
84 81 96 101 99 101 99 101 103 97 91 83 78 78 79 87 92 87 93 100 92 91 93 85 83 84 81 93 103 100 101 102 101 101 102 101 97 96 100 102 102 103 102 98 100 102 101 102 99 90 83 72 63 60 52 46 47 45 42 41 39 39 38 38 39 39 39 38 36 37 38 38 40 43 44 41 41 44 46 46 45 46 49 56 62 65 65 70 83 91 88 84 76 70 78 86 83
88 85 96 103 101 102 96 95 101 97 94 95 95 92 84 86 91 87 88 89 83 86 93 92 90 91 93 98 100 101 100 101 103 101 102 102 96 97 101 100 101 101 99 99 100 96 90 87 75 59 51 47 42 41 38 37 37 35 36 36 35 36 36 35 36 35 34 34 34 34 34 34 34 34 36 36 37 38 39 40 40 40 42 45 51 55 58 62 70 80 85 88 86 78 79 89 89
99 90 93 103 100 98 92 90 98 98 95 99 102 99 92 88 85 80 79 78 78 78 74 71 73 84 98 95 86 93 101 101 97 91 98 102 98 101 101 99 101 92 80 80 80 72 63 55 46 38 37 37 36 36 35 35 35 36 37 38 38 38 38 38 36 36 35 34 33 33 32 32 32 32 33 33 34 35 35 37 38 39 40 40 41 42 44 46 48 54 62 73 87 95 96 97 97
100 93 96 104 100 95 92 93 102 101 97 100 99 93 85 80 79 80 81 80 83 79 63 54 58 70 84 88 89 98 102 99 89 82 89 98 102 101 95 91 86 70 55 52 49 44 40 37 36 36 36 36 36 36 37 37 37 38 38 37 38 37 37 37 36 35 34 32 32 31 31 31 31 31 32 32 32 32 33 34 34 35 36 38 39 40 41 41 40 39 40 44 58 79 94 96 95
95 98 102 102 100 98 94 96 99 93 95 104 99 83 70 70 79 84 87 85 76 68 64 58 52 58 71 81 89 95 97 98 93 85 82 86 89 80 69 64 55 45 41 39 37 37 37 37 37 38 38 38 39 38 37 38 37 37 37 36 37 37 37 36 36 35 34 33 32 31 31 32 32 34 34 36 36 37 38 38 39 39 39 39 38 39 40 40 40 39 38 37 38 48 60 71 80
93 100 103 100 101 101 98 100 95 86 92 98 92 81 71 72 78 77 87 98 81 64 73 75 57 53 66 75 81 88 96 99 90 79 68 62 59 50 44 43 39 38 39 38 39 39 39 40 39 39 39 38 37 37 37 37 36 36 36 36 36 36 37 37 37 37 35 34 33 33 34 34 36 38 39 41 42 43 45 45 46 47 47 46 44 43 41 38 37 34 34 33 33 36 37 42 55
92 99 103 102 102 101 101 102 98 96 94 88 89 89 80 79 78 71 79 91 80 66 74 82 69 60 68 79 82 79 76 74 64 53 46 41 39 37 37 38 38 40 41 40 41 41 40 40 38 37 37 37 37 37 36 36 35 35 35 35 35 35 36 37 38 38 37 36 35 35 36 37 39 41 43 45 45 47 47 47 47 47 46 46 44 43 41 37 35 33 31 29 28 31 31 32 37
93 101 102 101 102 101 100 100 101 102 98 93 98 96 88 87 78 67 70 76 76 68 64 69 71 70 71 70 65 55 46 44 42 37 36 36 36 37 37 38 41 42 42 43 41 40 40 38 38 39 38 38 38 37 37 37 36 36 35 34 34 35 35 36 37 38 38 37 36 37 38 40 42 43 44 45 45 45 44 43 42 41 40 39 38 37 36 34 33 32 31 30 28 26 27 29 30
95 101 100 100 101 100 100 101 100 101 102 102 103 96 89 89 81 69 62 60 65 62 54 55 56 53 52 47 42 40 37 35 35 35 35 35 36 37 39 40 42 42 41 42 41 40 41 40 41 41 40 40 40 40 39 38 38 37 36 35 35 35 35 36 37 38 39 39 39 38 39 40 41 42 42 42 41 40 39 38 37 36 35 34 33 32 31 30 29 29 27 26 27 26 25 26 27
97 100 100 101 100 99 100 101 99 100 102 101 101 97 86 81 87 85 68 56 58 53 47 49 46 40 38 37 37 37 37 36 36 37 37 38 39 39 39 39 40 41 42 42 43 43 44 44 43 42 42 42 41 42 41 41 41 39 38 37 36 36 35 35 36 36 38 38 39 38 37 38 39 39 40 40 39 38 37 36 34 33 32 30 29 27 25 24 22 22 22 21 21 21 22 22 23
99 101 100 100 99 101 102 100 97 98 101 101 104 102 88 79 88 88 67 57 58 49 40 39 37 37 36 36 39 39 39 39 39 40 40 40 41 39 39 40 40 42 44 45 46 46 45 44 43 42 42 42 42 43 43 42 42 41 41 39 38 37 36 35 35 35 35 36 37 38 37 37 37 38 39 38 38 37 35 34 32 30 28 25 24 21 19 18 17 16 16 16 16 15 17 18 18
103 101 100 100 100 101 102 101 97 97 100 100 98 95 85 77 84 89 79 72 65 51 44 40 34 37 38 37 40 41 41 42 41 42 42 41 41 41 41 42 43 44 44 45 45 44 44 43 43 43 42 42 43 43 43 43 42 42 41 41 40 39 37 36 34 34 34 35 36 37 37 37 36 36 36 36 36 35 33 31 29 26 24 22 19 18 17 15 14 14 13 13 13 13 14 14 15
105 100 100 101 99 100 103 102 99 99 99 91 86 90 87 79 83 93 96 94 79 55 44 41 36 38 39 39 41 42 42 43 43 43 43 43 43 43 44 43 43 43 43 43 43 43 43 43 43 43 43 43 42 42 42 42 41 41 41 41 41 40 38 37 35 34 34 34 35 37 38 37 36 34 34 34 34 32 31 28 26 24 21 19 18 17 16 15 13 12 12 12 11 12 12 13 14
101 100 101 101 99 98 101 101 99 101 102 94 91 93 90 81 74 70 70 73 63 47 41 40 39 40 41 42 44 45 44 43 44 46 46 47 46 45 45 44 43 43 42 42 43 43 44 45 46 46 45 45 44 44 43 42 42 42 42 42 41 40 39 38 37 36 35 35 35 37 38 38 37 35 33 33 32 31 29 27 25 22 19 18 18 17 15 13 12 10 10 9 9 10 10 10 12
98 100 99 100 100 99 102 102 99 100 102 101 101 97 90 78 62 49 47 49 44 40 41 39 39 42 42 45 47 46 46 45 46 49 49 49 48 47 45 43 42 41 42 43 44 45 47 48 48 47 47 48 48 47 46 45 45 44 44 43 41 41 41 41 41 40 38 36 35 36 38 38 38 35 33 33 32 31 30 27 24 21 19 18 18 16 14 11 10 9 8 7 7 8 8 8 10
100 102 98 97 99 101 104 102 100 100 100 101 100 97 94 82 61 48 46 45 41 41 42 41 42 45 44 46 48 47 47 48 48 50 50 49 49 47 44 42 42 42 43 45 47 49 51 51 51 50 50 50 50 50 50 50 49 48 46 45 45 45 44 44 44 43 40 37 36 36 37 39 39 37 35 33 33 32 30 28 25 20 18 19 17 14 12 9 8 7 6 6 5 5 6 7 8
98 101 101 99 101 103 102 100 100 100 99 102 99 94 99 93 71 56 52 49 46 43 43 44 43 44 46 47 47 48 48 49 50 50 49 48 46 45 44 43 43 44 46 48 50 53 53 53 54 54 54 53 53 54 54 54 53 51 50 49 49 48 47 47 46 45 43 39 37 37 37 39 39 38 36 34 34 33 30 28 24 20 18 18 16 13 10 8 7 6 4 4 4 4 4 5 6
100 103 101 101 106 104 101 101 102 100 99 104 103 96 101 101 85 72 61 53 53 49 42 44 45 43 47 48 47 50 50 49 50 49 48 47 45 45 45 46 47 48 49 52 53 53 52 54 57 59 59 57 57 58 58 57 55 54 53 51 51 50 48 47 47 47 46 43 40 38 38 39 40 39 37 34 34 33 31 28 23 19 18 18 15 11 9 7 5 4 4 3 3 3 3 4 4
103 102 95 96 103 104 100 96 96 100 99 99 102 101 102 101 96 90 72 55 63 65 47 43 46 44 46 48 49 50 51 50 49 48 47 46 46 47 48 49 50 50 52 55 55 54 53 56 60 63 62 60 60 61 61 61 59 58 56 54 54 53 50 49 49 50 50 46 42 40 39 40 40 40 38 35 35 33 31 28 23 19 18 17 14 10 8 6 4 4 4 3 4 4 3 4 4
102 99 94 95 101 103 95 84 90 103 100 98 103 101 100 102 98 96 88 75 71 64 50 46 47 44 45 48 49 50 51 50 47 47 48 47 48 51 52 53 53 53 55 56 56 54 54 59 65 66 63 60 60 61 63 64 63 62 61 60 59 56 52 52 53 54 53 50 45 42 40 41 41 40 38 35 34 33 31 28 23 20 19 17 13 10 7 5 4 4 4 3 3 3 4 4 4
Wind_Speed
42 41 39 37 36 34 32 31 29 28 25 23 22 20 19 19 18 20 22 22 23 26 29 31 32 31 29 29 30 31 31 29 29 30 28 28 30 32 35 36 37 39 40 41 41 41 43 44 45 45 46 45 42 41 41 42 44 46 47 48 49 50 50 49 48 48 49 49 50 51 51 52 53 54 55 56 57 58 58 59 60 61 61 62 63 64 66 67 67 67 67 68 68 67 67 67 67
39 38 36 34 33 31 30 28 27 25 23 22 21 19 17 18 18 21 23 23 25 27 28 31 30 29 29 30 30 26 26 27 26 28 28 27 31 35 36 36 37 38 37 38 39 40 41 41 41 41 43 44 43 42 42 42 42 44 45 45 46 47 47 47 47 47 48 49 49 49 49 50 51 51 52 53 54 54 54 53 54 54 55 56 57 58 60 62 64 65 65 65 65 65 65 64 64
36 34 33 31 30 29 28 26 25 23 21 21 19 16 16 17 18 20 21 20 23 25 27 30 30 31 32 34 35 29 27 26 25 28 29 26 29 34 35 32 34 37 36 36 39 41 41 41 41 41 41 41 41 42 43 44 43 44 43 43 43 44 45 46 46 47 49 50 50 50 50 51 51 51 51 52 54 55 55 54 53 53 52 53 53 54 55 57 59 61 62 61 61 60 60 59 60
32 30 29 28 27 26 25 24 23 21 19 17 13 14 13 12 13 16 19 20 25 27 27 32 35 34 32 32 32 29 27 25 24 27 29 27 28 32 34 32 33 36 37 37 38 40 41 41 40 40 41 41 41 41 41 43 43 43 43 43 43 43 44 45 45 46 48 49 49 50 51 52 52 52 52 52 53 54 56 56 56 56 56 55 55 54 54 54 56 57 58 58 58 57 56 56 56
28 27 26 26 25 24 23 21 19 17 14 11 10 12 10 7 8 14 19 24 30 34 33 35 37 36 34 32 29 28 28 26 25 26 26 27 28 30 31 32 33 33 35 36 37 38 39 39 38 38 39 40 40 39 40 42 43 44 44 44 43 43 43 44 44 45 46 48 49 50 51 53 54 54 54 54 54 54 55 56 56 57 57 57 56 55 54 54 54 54 55 55 55 55 54 54 54
24 24 24 23 22 20 18 15 14 11 10 10 11 13 11 8 11 18 23 28 32 34 33 32 34 35 35 33 29 28 30 28 27 27 26 27 28 29 29 30 32 32 31 32 33 36 37 36 36 37 38 38 37 38 39 42 44 44 45 45 44 44 44 44 45 45 46 47 48 50 52 54 56 57 57 57 57 57 56 56 55 55 55 54 54 53 53 52 52 52 52 53 53 53 53 53 53
21 20 20 19 17 15 13 11 8 6 6 7 9 12 13 10 15 21 25 30 30 28 28 27 28 30 30 28 26 27 29 28 29 29 29 29 30 30 29 29 31 32 31 30 30 32 34 34 35 37 39 39 38 38 40 42 44 45 45 46 46 46 47 47 46 47 48 48 48 50 52 53 55 57 59 60 60 60 59 59 57 56 54 53 52 52 51 49 49 49 50 50 51 51 52 51 51
17 16 16 14 12 10 10 8 6 6 5 6 8 10 12 11 19 25 28 28 26 24 24 24 25 27 27 26 25 26 27 27 28 29 29 30 30 30 29 28 29 31 31 31 30 31 33 35 35 36 37 38 39 41 43 45 47 47 46 45 44 45 45 46 45 45 46 47 46 46 46 47 48 49 51 53 55 56 57 58 58 57 56 54 53 51 50 48 47 47 47 47 47 48 48 48 48
13 12 11 10 8 8 9 9 10 11 7 6 9 9 9 13 23 29 30 27 23 23 24 25 25 26 27 27 26 26 27 28 28 28 29 30 30 30 30 30 29 29 31 32 32 33 34 34 35 35 34 34 36 40 43 45 46 44 43 42 41 41 40 40 40 39 39 40 40 38 35 32 31 32 33 35 39 42 44 47 49 50 50 50 50 48 47 45 43 42 41 41 41 42 42 43 43
9 8 8 7 8 9 9 12 15 15 10 3 6 10 11 16 26 29 30 28 24 24 26 27 26 27 27 26 27 28 29 28 29 29 31 32 31 32 32 32 32 31 31 34 35 35 35 35 35 34 34 34 37 39 39 40 39 38 37 36 34 33 33 33 33 32 31 31 29 26 21 20 20 20 21 22 24 26 29 31 34 36 37 39 40 39 39 37 35 34 34 35 36 37 37 38 38
6 6 7 7 9 10 11 15 18 17 14 8 11 16 17 20 26 28 29 28 25 25 26 26 26 27 27 25 26 30 31 30 31 32 33 32 32 32 31 30 31 30 30 32 34 35 37 35 32 32 34 35 37 38 37 34 33 33 30 28 27 27 28 28 27 26 25 23 21 18 17 18 17 17 17 17 18 19 21 22 24 26 27 29 30 30 30 29 29 30 32 33 34 34 34 35 35
4 6 7 7 8 10 12 15 18 19 18 16 20 23 22 22 26 27 27 26 25 26 28 27 27 29 28 27 26 29 33 33 32 31 32 31 31 33 32 30 27 27 29 30 32 34 34 32 30 30 30 29 32 33 32 31 30 28 25 24 25 26 26 25 24 23 22 20 19 19 20 19 17 16 16 17 17 18 19 21 22 23 23 24 25 25 26 27 28 30 31 31 31 32 32 32 33
5 6 7 7 8 8 11 14 18 21 19 18 25 27 23 21 25 27 25 25 27 28 29 29 30 30 30 30 30 30 32 32 31 31 30 29 30 33 33 32 29 29 31 31 32 33 29 26 25 26 26 26 27 26 26 26 24 23 23 23 24 24 24 23 22 21 20 20 19 20 20 19 16 15 16 17 19 20 21 22 23 23 24 25 26 26 26 26 28 29 30 29 29 29 29 30 31
6 7 7 7 8 8 10 13 16 19 20 21 26 28 24 21 25 27 26 27 29 30 31 31 33 31 31 33 33 35 35 34 34 33 30 28 28 31 31 32 33 35 36 34 32 30 27 23 20 21 25 27 25 21 20 20 21 22 22 23 23 22 21 21 21 20 20 21 20 21 20 19 18 16 17 18 20 21 22 23 23 24 24 25 27 27 26 26 27 28 28 28 28 28 28 29 30
7 7 7 7 8 9 10 13 16 19 21 24 27 27 25 22 24 27 27 29 31 32 33 34 34 33 35 36 36 37 38 37 37 37 34 31 30 31 31 30 32 34 34 32 29 26 23 21 21 22 25 26 25 21 17 18 19 20 20 19 20 20 20 20 20 19 20 21 22 21 21 20 19 19 20 20 22 22 22 23 24 24 25 25 26 27 27 26 26 26 26 27 27 27 27 28 30
7 7 7 7 8 9 10 13 16 19 22 24 26 26 27 24 24 26 27 29 31 33 35 36 36 35 37 39 38 36 36 36 35 34 35 32 30 30 27 24 25 26 25 24 25 24 21 19 22 23 23 23 24 21 17 17 17 18 20 20 19 18 18 20 20 20 20 21 21 21 20 20 20 22 22 23 24 24 23 24 24 24 25 24 25 26 26 26 26 25 25 26 26 27 27 28 30
6 7 6 6 8 8 10 13 14 18 21 23 24 26 28 28 26 26 28 29 30 31 33 36 37 37 36 37 39 38 36 35 31 30 31 29 26 25 21 19 19 18 17 16 19 22 20 18 20 22 23 24 23 21 18 17 17 19 20 21 21 19 19 20 22 22 22 22 22 22 21 21 23 24 24 24 25 24 23 24 24 24 25 25 24 24 24 24 25 24 24 24 26 28 29 29 29
6 6 6 7 10 8 9 12 14 18 20 22 26 27 27 27 26 25 26 27 29 30 30 31 34 34 34 33 33 33 31 29 27 27 28 27 25 22 19 18 17 14 13 13 15 19 19 18 19 20 23 22 20 20 21 20 19 19 18 19 21 21 20 21 22 23 24 24 24 24 23 22 23 25 25 23 24 25 23 23 24 25 26 25 24 23 23 23 24 24 23 24 26 28 30 30 30
7 8 10 10 11 11 11 13 16 20 21 22 25 26 25 26 26 27 27 26 27 30 30 28 30 30 30 30 28 27 26 23 22 23 23 23 22 19 17 17 16 13 12 13 15 18 19 19 18 19 22 22 19 18 20 22 21 20 20 19 19 20 22 22 23 24 24 25 24 25 25 24 24 25 25 24 25 27 27 26 25 26 27 26 24 22 22 22 22 21 22 24 26 28 31 32 32
9 10 11 10 10 12 14 16 19 20 20 22 23 24 26 29 28 28 28 27 27 28 28 27 27 27 26 26 25 25 24 19 17 17 17 18 18 16 15 16 16 13 12 14 16 17 19 19 17 18 21 23 21 19 19 22 22 21 22 22 20 21 23 23 23 24 24 24 24 25 25 25 25 27 27 26 27 28 29 29 29 28 28 28 26 23 21 22 21 20 22 24 25 27 30 32 33
11 11 11 12 12 14 16 17 19 19 19 20 20 20 23 27 26 24 25 25 25 26 26 25 25 24 20 19 21 21 20 16 13 14 15 16 17 16 13 14 16 14 13 16 18 18 19 18 16 19 22 23 22 21 21 22 22 21 21 22 22 23 23 25 25 24 25 25 25 26 26 26 27 28 29 29 29 30 30 31 32 30 28 28 27 24 21 22 22 22 23 26 27 27 29 31 32
12 13 14 15 15 15 15 15 16 18 20 20 20 19 19 21 21 20 21 23 24 24 24 23 21 18 15 14 14 15 17 16 14 14 15 16 16 16 15 13 14 15 15 16 18 18 19 19 17 18 22 23 23 22 22 22 23 22 21 22 23 24 25 25 26 26 26 27 27 27 28 28 29 30 31 31 31 31 31 31 32 32 30 28 27 26 24 24 24 24 25 26 27 27 27 27 29
8 9 10 12 12 12 13 14 15 14 16 19 19 19 18 16 16 16 16 20 21 21 19 17 15 14 12 12 12 14 17 15 13 14 15 16 15 15 16 15 13 15 16 15 16 16 18 20 19 20 23 26 24 23 23 22 23 23 23 23 24 25 25 26 27 28 28 28 29 29 30 30 31 32 32 32 32 32 31 31 32 32 31 29 28 27 27 26 26 27 27 27 25 23 24 26 27
3 5 6 9 10 10 10 11 12 11 12 14 14 15 14 12 13 15 15 17 17 17 15 12 12 13 12 13 14 16 18 14 12 13 14 15 15 13 13 14 13 14 14 13 13 15 17 20 21 21 23 25 24 24 24 24 24 24 24 24 25 26 27 28 29 29 30 30 31 32 32 33 33 33 33 32 32 31 31 30 31 32 31 29 28 28 28 29 29 30 30 31 29 28 28 29 29
2 4 6 7 7 5 3 3 4 6 8 9 10 11 11 10 13 16 15 12 10 12 13 10 9 12 12 13 14 17 19 16 14 13 12 12 13 11 10 10 11 11 11 12 13 14 15 18 21 23 24 24 25 25 26 26 26 26 25 25 26 27 28 29 30 31 31 31 32 33 34 34 34 33 33 32 32 31 30 29 30 31 31 28 27 28 29 30 31 31 32 33 34 35 35 35 34
2 3 5 6 5 3 1 3 3 4 4 7 9 11 11 11 12 13 11 7 5 8 12 10 8 10 13 13 12 15 18 17 14 13 12 11 11 11 11 10 10 10 10 11 13 15 15 16 19 21 23 24 25 25 26 26 26 26 26 25 25 25 26 27 28 29 30 30 30 31 32 32 33 33 32 32 32 31 30 29 28 29 30 29 28 29 29 31 32 32 33 34 35 37 38 38 37
5 4 7 7 5 3 1 2 5 6 5 6 8 9 11 11 11 10 10 9 6 7 9 9 8 10 14 13 10 11 15 17 15 14 14 11 11 11 12 11 11 12 13 13 14 16 17 17 19 20 21 23 24 24 24 24 25 25 24 24 23 23 24 25 26 27 28 28 27 28 28 29 30 30 31 31 31 31 30 29 28 28 29 29 29 30 31 31 32 33 34 35 36 38 39 40 39
6 6 8 6 4 4 3 4 6 6 6 7 8 9 10 10 11 13 13 12 10 8 8 7 7 10 14 13 13 10 10 13 11 11 12 11 12 12 12 12 11 11 13 15 16 17 18 19 20 20 21 22 22 22 21 21 21 22 22 22 22 22 23 23 24 25 25 26 26 25 25 26 27 28 29 29 30 30 29 29 29 29 30 30 30 31 32 32 33 34 35 36 37 39 40 41 41
7 7 8 6 4 4 4 6 6 6 7 8 10 10 10 10 13 16 16 15 13 9 7 7 7 9 11 12 14 10 7 8 7 7 7 9 11 12 12 12 13 12 12 14 16 17 18 19 19 20 21 21 21 20 20 20 20 20 20 21 21 21 22 22 23 23 23 24 24 23 23 24 24 25 26 27 28 28 28 28 29 31 32 32 33 34 34 35 35 36 36 37 38 39 40 41 42
8 8 7 7 4 4 4 6 7 8 8 9 10 10 10 10 13 17 16 15 12 9 9 10 8 8 8 9 10 8 7 7 6 5 5 6 7 7 7 8 11 12 12 13 14 15 15 16 17 17 18 18 19 19 19 19 19 20 20 21 22 22 22 22 22 22 22 22 22 22 22 22 23 23 24 25 26 27 28 28 29 31 33 34 35 36 36 37 38 38 39 40 41 41 42 42 43
9 10 10 8 4 5 5 6 8 9 7 8 10 9 9 9 13 16 15 14 12 11 11 12 10 7 7 7 5 2 4 5 5 4 3 3 1 3 4 6 9 10 10 11 12 13 13 14 15 15 15 16 18 18 19 19 20 21 21 22 22 23 23 23 23 23 22 22 22 22 22 22 23 24 24 25 26 27 28 29 30 31 32 34 35 36 37 38 39 40 41 42 43 44 45 45 46
9 11 12 7 6 8 8 9 9 9 7 8 10 10 9 10 12 15 15 14 12 12 12 11 11 9 7 6 5 2 1 2 4 4 2 0 4 5 6 8 9 10 10 9 11 12 13 14 15 16 17 18 19 19 20 20 21 21 22 23 23 24 24 24 25 25 24 24 24 24 24 24 24 24 25 26 26 28 29 30 31 32 34 35 36 37 38 39 40 41 42 43 45 46 47 48 48
8 10 11 7 7 9 10 10 9 7 6 8 11 10 10 12 13 14 15 14 11 11 11 10 10 9 7 5 5 6 3 2 3 1 0 3 6 7 8 9 9 9 10 10 11 12 14 15 16 17 17 18 19 19 20 20 20 21 22 22 23 24 24 25 26 26 25 25 25 25 26 27 27 27 27 27 28 29 30 31 32 33 35 36 37 39 40 41 42 43 43 44 45 46 47 48 49
7 9 8 5 8 12 11 10 8 7 7 9 9 9 10 12 12 12 13 12 11 10 11 11 10 8 9 8 6 5 3 1 2 2 3 4 6 7 8 7 8 9 9 10 10 10 12 12 12 12 13 13 14 15 16 16 16 17 18 19 20 21 22 23 24 24 24 24 24 25 26 27 28 29 29 30 30 30 31 32 32 33 34 36 38 39 41 42 43 44 45 46 47 48 49 49 50
6 7 6 4 9 12 12 11 9 8 8 9 8 8 10 10 10 10 9 10 11 10 10 11 11 10 11 11 8 5 5 4 3 3 3 3 4 5 6 6 8 7 7 7 6 7 9 9 9 9 10 11 11 11 12 12 12 13 14 15 16 17 17 20 21 21 22 23 24 25 26 27 28 30 31 31 32 32 34 35 35 35 36 37 38 39 40 41 42 43 45 46 48 49 50 51 51
4 5 5 9 10 10 11 11 8 8 7 9 9 8 9 9 9 8 6 7 9 9 10 11 11 10 10 11 9 5 7 7 4 3 2 3 5 6 6 6 6 3 3 5 4 5 7 7 7 7 10 12 12 11 11 12 12 12 12 13 15 16 17 18 19 20 21 23 24 25 26 26 26 28 30 31 33 34 35 36 38 38 38 40 41 41 41 41 42 43 44 45 47 49 51 52 52
3 4 7 11 11 10 10 9 7 6 5 7 8 8 9 8 7 7 6 6 7 9 9 10 10 9 9 9 7 5 6 6 4 3 2 2 3 4 2 2 3 3 3 2 3 4 5 5 6 7 10 11 11 11 11 12 12 12 13 13 15 17 18 19 20 21 22 24 25 25 25 26 27 29 31 32 34 35 36 37 38 39 40 42 43 43 43 44 45 46 46 46 46 47 49 50 52
3 6 10 13 13 11 10 9 8 7 5 6 7 8 8 7 7 7 8 7 7 8 7 8 9 8 8 9 6 4 4 3 3 3 3 2 2 4 5 6 5 5 4 3 3 4 4 5 7 9 9 9 10 11 12 12 12 13 14 15 17 18 19 20 20 22 24 26 26 26 26 27 28 30 32 33 34 36 37 37 39 40 42 43 44 45 45 46 47 48 49 49 49 48 48 49 49
5 11 16 16 15 11 9 10 10 9 7 7 7 7 6 6 7 7 8 8 8 8 6 6 6 6 7 8 6 5 5 5 5 6 7 8 8 8 8 7 7 7 6 5 5 4 4 6 8 10 9 9 11 12 12 13 13 14 14 16 17 18 19 20 21 22 24 25 26 27 27 28 30 31 32 33 35 36 37 38 39 40 42 43 44 46 46 47 48 49 50 50 51 50 49 50 50
10 15 18 17 15 11 8 10 11 10 10 9 8 6 5 5 5 5 7 8 7 7 7 7 8 8 7 7 8 9 10 9 8 9 11 11 10 9 8 8 8 8 6 5 5 5 5 6 8 9 9 9 10 11 12 13 14 15 17 18 20 21 23 24 25 25 26 27 27 28 29 29 30 31 33 34 35 37 38 39 41 42 43 44 46 47 49 49 50 50 51 50 51 51 51 51 52
12 15 17 16 14 11 10 12 12 10 10 9 6 3 4 4 4 5 5 6 6 5 5 7 9 10 9 10 12 14 15 12 11 12 12 11 10 9 8 8 8 8 7 7 7 8 7 6 7 9 10 12 13 15 16 18 19 20 21 23 24 25 26 27 28 29 30 30 31 31 31 32 32 33 34 35 36 37 39 40 41 43 45 46 48 50 51 53 54 54 54 52 51 53 53 54 54
12 13 17 17 14 12 13 14 12 9 7 6 3 1 3 5 5 6 7 8 8 8 9 10 12 13 13 15 16 16 16 14 12 11 11 10 10 9 8 9 9 10 11 10 9 10 10 10 12 14 16 17 18 19 21 21 22 23 24 25 26 27 28 29 30 31 32 33 33 33 34 34 35 35 36 37 38 39 40 41 42 44 46 47 49 51 53 55 57 58 58 57 56 57 57 57 57
13 15 18 17 14 11 11 11 10 9 6 5 5 5 6 8 9 10 11 11 11 12 14 15 15 16 17 17 15 14 14 13 11 10 10 10 10 10 11 12 12 12 12 12 12 13 14 16 17 18 19 19 20 21 22 23 24 24 25 26 27 28 29 30 32 33 34 35 35 35 35 36 36 36 37 38 39 40 41 42 43 45 46 48 50 52 54 56 59 62 63 62 61 62 63 61 59
17 20 18 15 13 11 11 12 11 11 10 10 11 11 12 13 12 13 14 13 12 14 16 16 16 17 16 15 13 11 11 12 11 11 12 13 13 14 14 14 14 14 14 15 16 16 17 17 18 19 19 20 21 22 23 24 25 26 27 27 28 29 30 32 33 34 35 36 37 37 37 37 37 37 38 38 39 40 41 42 43 45 47 49 52 54 56 58 61 63 65 65 65 66 67 66 65
22 24 19 14 12 12 13 13 11 10 11 13 14 13 14 15 15 15 14 14 14 14 14 15 14 14 13 13 11 10 11 12 13 14 14 15 15 15 15 15 15 15 16 16 17 17 18 18 19 20 21 22 22 23 24 25 27 27 28 29 30 31 32 33 34 35 36 37 37 37 37 38 38 38 39 39 40 41 42 43 45 47 49 52 55 58 61 63 65 66 66 67 66 65 66 67 69
26 26 19 13 13 12 11 12 12 10 11 14 14 13 14 16 16 15 14 15 14 13 14 14 13 13 12 13 13 13 13 13 14 14 14 15 15 15 16 16 16 16 16 17 17 18 19 20 21 22 23 23 24 25 26 27 28 29 30 31 32 33 34 35 36 36 36 36 36 36 36 36 36 37 38 39 41 42 43 45 48 50 53 57 60 63 66 68 70 71 72 72 71 68 66 66 68
28 25 19 14 11 9 9 11 10 10 12 14 14 13 15 16 16 15 14 14 14 14 14 14 15 15 14 15 15 15 14 14 14 14 14 15 15 15 16 16 16 16 17 18 18 19 20 21 22 23 23 24 25 26 27 28 30 31 32 33 34 35 36 36 37 37 37 36 36 35 34 34 34 35 36 38 40 42 44 47 50 53 56 60 64 67 69 71 73 75 76 76 76 75 72 70 69
27 23 20 16 12 11 10 11 11 11 13 13 12 13 14 13 13 13 13 14 14 14 14 15 16 16 16 16 15 15 14 14 15 14 14 15 15 15 15 16 16 17 17 18 19 20 21 21 22 22 23 25 26 27 29 30 32 33 34 35 36 36 37 37 38 38 38 37 37 36 35 35 35 36 36 38 40 43 46 49 52 56 60 63 66 69 71 73 74 76 77 77 77 76 75 74 73
27 23 22 18 16 15 12 13 15 15 15 13 12 13 12 12 12 13 13 14 14 14 15 15 15 15 16 16 15 15 15 15 14 14 14 14 15 15 15 15 16 16 17 18 19 19 20 21 22 23 24 26 27 29 31 32 34 35 36 37 38 38 39 39 40 40 40 40 40 40 39 38 38 38 39 40 42 45 48 52 55 59 62 65 67 69 70 72 72 73 73 74 73 72 72 72 73
28 26 23 20 18 15 14 17 17 16 16 15 13 13 13 12 12 12 12 12 12 13 14 15 15 15 15 16 15 15 14 14 13 13 13 13 14 14 15 15 15 16 16 17 18 19 20 21 23 25 26 28 29 31 32 34 35 36 38 39 40 40 41 42 42 43 43 44 44 44 44 43 42 42 43 44 46 48 51 55 58 61 64 66 68 68 69 69 69 68 68 67 67 66 65 65 67
29 27 24 22 19 17 18 21 18 16 17 15 13 13 13 12 10 11 12 12 12 13 13 13 14 15 15 15 14 13 13 12 12 12 12 12 13 14 14 15 15 15 16 17 19 20 22 24 25 27 28 30 31 33 34 36 37 39 40 41 42 43 44 44 45 46 47 48 49 49 49 48 47 47 47 48 49 52 55 58 61 64 66 67 68 68 68 67 66 64 62 61 60 59 59 58 59
26 25 24 22 20 20 22 22 19 17 17 16 14 13 13 12 12 13 15 15 14 14 13 13 14 14 14 13 12 11 11 10 10 10 11 11 12 13 14 14 15 16 17 19 21 23 24 26 27 29 30 32 33 35 37 38 40 42 43 44 45 46 47 48 49 51 52 52 53 53 53 52 52 51 51 52 54 56 60 63 65 68 69 69 69 67 66 65 63 61 58 56 54 53 53 52 53
23 23 23 22 22 24 24 23 20 16 15 14 12 12 12 13 14 15 15 14 14 15 14 13 13 12 12 11 10 10 9 8 9 9 10 10 11 12 13 14 15 17 18 21 22 24 26 27 28 30 31 33 35 37 39 41 43 44 45 47 48 49 50 51 53 54 55 55 55 56 56 56 56 56 56 57 59 62 65 68 70 72 72 71 69 66 64 63 60 57 53 51 48 47 46 46 47
26 24 23 23 25 25 23 23 20 16 15 14 12 12 11 10 11 13 13 13 13 14 13 12 11 10 10 9 8 8 7 7 7 8 8 9 10 11 13 14 16 18 20 22 24 26 27 28 30 32 34 36 38 40 41 43 45 47 48 50 51 52 53 54 55 56 57 57 58 60 60 60 60 60 61 62 64 66 69 72 74 75 74 72 69 66 63 60 56 52 49 45 43 41 41 40 41
28 25 24 26 26 23 22 23 20 17 16 14 14 15 12 10 11 11 12 11 11 12 11 9 9 8 8 7 6 6 6 6 6 7 8 9 10 11 13 15 17 19 22 24 26 27 28 30 33 35 37 39 40 42 43 45 47 49 51 52 53 54 55 56 57 58 59 61 62 63 64 64 64 64 64 65 67 70 73 76 77 77 76 73 69 66 62 57 52 48 45 41 38 36 36 35 35
27 24 27 30 27 23 22 23 21 19 19 16 16 17 15 12 12 11 11 11 10 10 9 8 7 7 7 6 5 4 4 5 6 7 8 9 10 11 13 16 18 21 23 26 27 28 30 32 34 36 38 40 42 43 45 46 48 51 53 55 56 57 57 58 59 61 62 63 64 66 67 67 66 66 67 68 70 73 76 79 80 79 78 74 70 65 61 55 50 45 41 37 33 31 31 30 30
27 23 27 29 25 23 22 22 21 19 20 19 17 17 15 12 11 10 11 12 11 9 8 7 6 6 6 4 3 2 3 4 5 7 7 9 10 12 15 17 20 22 25 27 28 30 32 34 36 38 40 41 43 44 46 47 50 52 55 57 58 59 59 60 62 63 64 65 66 68 69 69 69 68 69 70 72 75 78 81 82 82 80 75 70 65 59 54 48 42 38 34 30 27 26 25 26
28 24 28 28 23 22 22 23 21 18 19 19 18 17 15 12 9 9 12 13 12 10 8 7 6 6 4 2 1 1 2 3 5 6 7 9 11 14 16 19 21 23 26 27 29 31 33 35 37 39 41 43 43 45 46 49 51 54 56 58 60 60 61 62 64 65 66 67 68 69 71 71 71 70 70 71 73 76 79 82 84 84 82 77 71 65 59 53 48 41 36 31 27 24 23 22 22
Wind_Direction
269 268 267 267 267 267 267 267 267 267 267 266 264 263 265 261 252 250 252 248 247 249 252 258 261 264 268 267 265 265 263 254 248 248 253 257 252 250 249 251 254 258 262 262 262 261 262 262 262 263 266 271 273 270 269 267 267 266 266 267 265 264 264 265 265 265 262 261 261 259 258 258 258 257 256 256 256 257 257 258 258 259 259 259 259 259 258 259 260 260 260 260 261 263 264 265 265
267 266 266 266 265 265 265 265 264 264 264 262 261 259 259 260 253 252 257 258 252 247 251 257 259 260 261 262 263 261 263 258 250 246 247 248 245 247 250 251 252 256 262 260 258 259 260 261 262 264 267 271 271 269 268 267 267 266 267 268 266 265 266 265 265 264 261 260 260 257 257 257 256 256 255 255 255 254 254 256 257 258 259 259 260 259 259 259 259 260 261 262 263 264 265 266 265
265 265 264 264 264 264 264 263 262 262 262 262 262 256 250 253 253 253 261 262 253 250 253 252 251 258 259 258 258 257 259 256 249 243 240 242 243 246 251 254 254 254 257 257 255 257 260 260 261 264 267 270 270 268 267 267 267 267 267 268 269 269 268 266 265 263 261 261 260 257 256 255 254 254 255 255 254 253 252 253 255 256 258 259 259 260 260 260 260 261 262 263 264 265 266 266 266
264 264 264 263 262 262 262 263 263 263 262 261 257 251 243 242 252 256 258 258 255 254 253 251 254 260 258 253 254 251 251 253 248 241 238 237 242 248 253 255 256 255 256 258 257 258 260 261 261 262 265 267 268 267 267 268 268 268 268 268 270 272 270 267 265 263 262 262 261 258 255 255 254 253 254 255 255 254 253 253 255 256 258 259 260 261 261 261 261 262 262 263 264 266 266 267 267
263 263 263 262 260 260 261 263 263 261 256 247 231 231 221 202 250 257 253 257 257 254 254 256 257 257 252 250 251 246 244 248 245 238 235 235 239 248 252 253 255 258 258 258 257 258 260 262 261 261 264 265 266 266 267 267 269 270 269 269 270 272 272 270 267 265 264 264 263 261 258 257 256 256 256 256 256 256 255 255 256 258 259 260 261 262 262 262 262 263 263 264 265 266 266 267 268
262 261 260 260 260 261 261 260 259 253 240 224 208 212 204 189 230 246 252 257 259 257 258 259 255 252 249 248 248 243 239 239 241 238 237 238 240 244 248 250 252 258 260 258 258 259 260 260 260 263 266 267 268 270 268 267 268 270 270 270 269 270 272 272 269 267 267 267 264 263 262 260 259 259 259 259 259 258 258 258 258 259 260 261 262 263 263 263 263 264 264 264 265 265 265 266 267
260 259 259 260 261 261 255 246 237 222 215 209 200 204 197 206 233 241 250 255 258 258 256 257 253 249 246 243 241 239 236 235 238 239 240 241 243 244 246 250 253 258 259 258 259 260 260 260 262 267 269 268 269 270 270 269 269 271 273 273 270 269 271 272 272 269 268 268 267 266 264 263 262 262 261 260 260 260 259 259 258 259 260 261 263 264 264 265 266 265 265 265 265 264 264 265 265
258 259 259 259 258 252 241 219 185 156 164 177 175 183 180 214 242 236 243 252 257 256 252 252 252 248 244 240 237 238 238 238 239 241 243 242 243 244 244 248 253 257 260 260 261 263 263 263 263 267 271 270 267 267 270 272 274 275 276 275 273 271 271 272 273 271 269 269 270 269 267 265 264 263 262 261 260 260 259 259 259 259 260 261 262 264 265 267 267 267 266 265 264 263 263 262 262
256 255 253 248 236 224 213 180 151 137 139 166 174 189 197 235 246 237 244 254 254 251 249 249 249 249 245 240 236 234 239 242 242 244 246 244 243 244 243 244 249 255 258 260 262 266 269 268 265 265 270 272 270 269 271 273 274 276 276 275 274 272 271 270 271 270 269 269 270 269 266 265 265 264 263 262 261 260 260 259 259 259 259 260 261 263 265 266 266 264 263 262 260 260 259 259 258
249 245 235 223 208 199 189 163 149 140 137 168 200 206 220 243 249 245 249 252 247 247 248 248 249 250 246 244 239 234 239 243 243 244 245 247 247 248 248 246 248 253 256 258 260 264 268 271 271 268 269 273 273 273 274 275 275 275 275 273 271 269 268 267 267 266 265 265 264 262 260 262 265 266 265 264 262 262 261 260 258 257 256 257 260 261 261 260 259 258 258 258 259 258 257 256 256
240 229 220 211 201 187 173 161 153 148 153 195 222 212 216 238 248 247 249 248 244 243 244 247 249 248 243 244 244 240 242 246 247 246 245 247 251 252 254 252 251 254 256 259 259 260 263 268 271 269 269 272 272 273 275 277 278 276 272 268 265 265 264 263 262 260 260 255 250 253 254 254 256 260 263 265 265 264 262 259 257 255 255 255 256 255 253 253 254 256 257 260 261 260 259 257 255
224 219 214 206 204 191 174 168 166 165 168 195 218 219 222 236 245 243 244 244 240 240 240 242 247 248 240 237 242 244 246 250 252 251 249 249 250 252 254 254 252 254 258 262 263 262 263 264 264 265 266 268 270 273 275 277 278 273 266 264 265 264 260 258 257 258 254 243 244 250 249 248 250 254 259 264 266 265 264 262 260 258 257 256 254 252 251 252 256 258 260 261 261 260 259 256 252
214 215 205 195 201 193 177 175 176 179 184 202 215 219 222 236 245 243 242 241 238 239 240 239 243 247 243 237 240 246 250 252 252 252 255 254 249 248 250 253 255 260 264 266 267 264 264 262 261 263 261 262 268 272 277 277 273 266 264 266 265 261 256 255 256 257 247 238 245 248 246 250 253 256 260 264 268 269 268 267 265 262 261 260 259 257 256 257 258 259 260 259 258 257 256 253 246
206 213 204 196 197 189 179 181 185 193 203 214 217 218 222 236 246 244 242 242 241 240 242 241 240 245 247 245 244 246 251 252 248 246 253 256 250 249 251 255 259 264 266 266 267 263 261 257 251 253 253 257 264 268 275 273 267 265 267 266 261 258 255 255 256 255 246 240 244 246 248 254 258 260 262 266 270 271 270 268 267 265 264 264 264 262 261 260 260 260 259 256 256 255 252 249 243
205 211 205 202 201 192 188 191 199 209 215 221 224 223 226 238 247 248 244 242 244 243 243 243 241 243 249 250 248 247 249 251 249 244 247 255 256 254 256 259 262 266 268 263 260 258 255 246 236 241 249 256 262 262 266 266 266 270 270 264 258 259 256 252 254 255 250 247 249 252 255 259 262 263 263 268 271 271 271 269 267 266 265 265 265 265 263 261 261 261 258 255 255 253 248 246 244
207 212 209 207 213 205 205 209 213 222 223 227 234 234 235 243 251 255 254 252 254 253 249 248 247 246 248 250 250 248 247 248 249 248 247 255 260 255 255 261 264 268 270 260 253 251 244 237 233 238 246 255 262 259 259 261 263 269 269 265 263 262 257 252 254 256 256 255 257 259 262 265 266 265 265 268 269 269 270 268 266 267 266 266 267 267 264 261 261 259 257 257 256 251 246 246 246
213 219 221 222 225 215 219 223 227 238 235 234 243 245 246 251 256 259 260 260 260 259 254 251 250 249 248 248 250 251 249 245 244 247 246 249 257 254 250 258 262 263 264 253 247 243 233 233 239 241 245 254 262 257 253 258 263 267 267 263 260 261 260 257 256 257 258 260 262 264 266 267 267 267 267 266 267 269 270 265 264 268 268 268 270 270 265 261 259 256 256 261 260 252 247 248 248
228 232 232 230 228 222 229 232 233 242 241 240 246 250 254 257 254 253 255 260 260 258 255 253 252 252 250 248 249 251 249 245 238 239 241 243 251 251 247 252 249 246 251 246 240 235 231 238 244 245 246 253 263 255 249 257 267 272 271 263 254 256 261 262 261 260 260 261 263 265 265 266 266 266 268 265 263 264 267 265 264 269 270 270 273 273 266 260 259 258 260 266 265 255 249 249 251
249 246 238 233 231 228 236 243 242 243 243 243 245 246 251 255 251 249 253 261 263 258 257 257 253 252 253 250 248 245 243 243 237 235 238 241 245 242 239 239 234 233 240 242 242 238 236 241 245 248 248 252 257 251 251 263 269 271 275 271 257 257 264 266 265 264 264 264 265 266 266 267 267 268 271 268 262 260 264 267 268 270 271 270 273 274 266 259 260 264 267 270 270 261 253 251 253
257 255 247 243 242 238 239 245 248 249 245 241 244 243 244 250 254 253 255 258 259 256 256 257 254 253 253 247 242 239 236 235 234 233 230 226 224 223 227 229 226 226 227 233 243 244 239 239 243 250 252 254 253 252 261 266 265 265 271 272 265 262 265 266 267 267 268 268 267 268 268 269 269 272 273 272 268 266 267 268 269 270 271 271 272 273 266 258 257 262 267 266 267 264 257 253 254
263 258 252 252 253 249 245 244 248 249 244 241 244 248 250 254 254 252 250 251 252 250 250 254 254 252 249 239 235 234 224 212 211 216 214 210 211 212 216 222 224 224 225 231 238 241 239 238 244 251 255 258 257 261 269 268 267 268 270 270 267 265 264 265 267 267 268 269 269 269 270 270 270 272 273 273 271 271 271 269 268 268 268 269 271 272 268 260 256 258 262 261 260 263 262 260 260
269 260 255 258 257 253 250 247 249 248 248 249 248 249 257 259 251 243 241 243 244 244 245 249 248 242 234 224 223 216 200 193 200 205 201 203 207 210 212 219 226 227 232 239 241 242 240 240 248 252 255 261 265 269 273 273 274 276 274 271 268 267 267 267 268 268 268 269 270 269 269 270 270 272 273 273 272 271 271 270 268 267 264 264 266 267 266 263 257 255 258 261 262 263 264 263 262
270 264 264 269 264 255 251 248 250 250 250 251 248 248 254 254 242 229 231 237 239 242 242 241 237 227 211 201 197 187 184 188 202 205 202 202 205 213 221 226 234 235 238 246 251 253 249 244 248 252 253 259 267 273 275 276 278 279 277 274 271 270 270 270 270 270 270 271 271 271 270 269 270 272 273 272 271 270 269 268 267 265 263 262 262 262 261 260 258 255 254 256 257 255 255 257 259
258 269 279 280 276 266 257 254 253 248 244 243 241 242 242 238 225 218 226 236 241 241 232 224 227 221 199 185 181 176 182 193 202 202 203 207 210 221 232 238 244 244 246 253 259 262 260 253 250 252 255 259 265 271 274 277 278 277 276 275 274 273 273 273 272 272 272 273 273 273 272 271 271 272 273 271 269 268 267 266 265 263 262 261 262 261 258 256 256 255 254 252 249 245 245 251 257
249 284 293 288 291 295 259 246 241 234 232 230 223 219 217 213 211 217 225 229 234 228 210 202 214 214 193 171 170 179 187 196 203 202 201 209 216 224 233 239 246 251 261 270 270 267 265 260 255 254 255 258 263 268 271 274 274 275 276 276 276 276 276 276 275 275 274 273 274 274 274 274 273 272 272 270 268 266 265 264 263 262 261 259 259 258 258 256 255 254 255 254 252 248 245 248 253
308 297 319 326 335 17 124 155 155 174 188 202 205 204 202 199 206 216 211 187 182 196 191 190 192 191 179 161 164 187 195 200 209 211 204 205 215 225 229 230 235 242 256 270 270 267 266 263 260 256 255 258 264 270 273 272 273 276 279 281 281 280 280 279 279 278 276 274 274 274 275 274 274 273 271 269 267 264 263 262 261 262 261 260 258 257 256 256 256 254 254 254 254 253 251 250 252
27 355 346 1 21 34 51 143 145 146 153 176 185 191 193 194 199 193 174 147 128 150 165 171 170 176 176 165 166 185 199 207 216 222 222 220 220 224 227 228 238 242 247 256 261 262 263 263 264 262 261 265 272 278 278 277 278 281 284 285 285 285 284 283 281 279 278 276 274 273 274 274 273 272 270 267 264 262 261 260 258 260 261 262 262 261 259 258 259 258 256 255 254 254 254 253 253
34 6 360 20 64 63 69 113 132 138 137 150 161 175 177 177 177 163 153 141 128 132 144 149 153 174 183 183 185 185 192 201 212 224 226 223 217 221 227 234 250 257 251 252 256 260 264 266 269 270 272 276 280 283 283 282 283 285 287 287 287 286 284 283 281 279 278 276 274 272 271 272 272 271 270 266 263 261 261 260 257 257 258 260 261 262 262 262 261 261 260 258 257 257 257 256 256
41 26 20 26 60 75 95 119 132 138 140 149 154 159 161 157 155 151 150 146 139 135 147 156 138 151 179 192 198 205 205 197 205 217 221 221 220 228 237 247 259 265 260 256 261 266 269 272 274 276 279 281 282 283 284 284 285 286 287 288 288 288 285 282 279 278 277 276 275 274 272 271 270 270 268 265 263 263 263 262 260 258 257 258 259 260 260 261 260 260 259 259 258 258 259 259 259
47 35 16 3 25 71 98 122 134 137 142 153 149 149 154 146 143 149 153 147 135 115 130 155 147 139 165 185 199 221 227 214 214 219 224 220 216 229 244 262 270 271 271 270 273 275 276 277 279 281 282 282 281 281 283 284 285 286 287 289 290 289 287 284 280 277 276 276 276 276 275 274 272 270 267 264 263 264 264 265 263 262 261 261 260 260 260 261 260 259 259 258 258 258 258 258 259
35 25 7 1 44 85 100 122 137 136 131 146 147 146 146 142 144 149 150 143 129 111 119 140 147 148 161 168 172 225 238 221 214 211 208 193 208 280 278 284 284 283 284 285 286 285 284 283 282 282 283 283 282 283 285 287 288 288 288 288 288 288 287 285 283 281 280 280 280 280 279 276 273 270 269 267 265 265 265 265 265 264 263 263 263 262 262 261 261 260 259 259 258 258 258 258 258
24 20 13 24 79 92 101 115 132 133 126 144 150 147 143 140 146 148 144 136 125 121 123 130 142 152 151 143 136 145 256 184 163 166 151 241 306 299 290 290 288 290 290 289 293 291 289 288 287 286 286 287 288 289 291 291 291 290 289 288 287 287 287 287 286 285 284 285 285 285 284 282 278 274 272 271 270 269 268 267 267 266 265 265 265 265 264 263 262 262 261 261 260 260 259 259 260
20 23 22 39 88 94 100 107 119 122 125 146 147 146 146 139 139 144 145 140 131 128 132 136 144 155 150 134 145 170 186 113 128 161 281 272 278 278 281 287 287 287 284 282 286 291 295 296 297 297 296 297 296 296 296 296 294 292 290 290 290 290 291 290 290 289 288 286 284 284 284 284 282 280 278 276 275 274 274 272 271 269 268 268 267 267 267 266 265 264 263 263 263 263 262 262 261
13 31 29 44 96 97 100 104 105 102 114 137 143 146 148 140 135 139 147 149 145 141 142 142 140 153 155 141 141 159 176 165 180 243 272 262 265 272 276 282 285 286 291 293 295 309 318 318 319 319 319 318 313 309 310 309 306 301 299 299 298 297 297 296 293 291 290 288 285 282 280 281 280 280 280 280 280 278 278 277 275 274 273 272 270 269 269 268 268 268 267 266 265 265 265 264 264
21 38 35 85 107 104 103 99 98 96 105 123 132 146 148 137 130 131 144 156 156 152 154 152 151 164 163 150 147 158 178 173 178 223 255 277 275 279 281 291 300 299 314 322 325 345 352 352 351 350 351 349 344 338 336 335 330 322 318 318 313 308 306 304 299 294 293 293 290 283 280 280 280 279 279 280 280 279 278 277 277 277 276 275 274 272 271 270 270 269 269 269 269 268 267 267 266
39 44 73 112 112 107 100 91 94 94 101 119 120 133 140 129 121 120 134 157 167 166 164 162 161 168 169 164 165 172 177 177 195 222 241 306 306 305 296 305 318 322 353 2 10 8 359 359 356 351 351 350 349 349 350 348 342 334 332 330 322 313 311 309 305 302 300 298 295 289 286 285 284 282 281 279 278 278 277 276 275 275 275 275 274 273 273 272 271 271 271 271 270 270 269 269 269
29 62 102 115 110 105 99 88 97 103 107 121 118 121 127 122 118 118 125 146 168 169 165 166 165 167 164 159 160 158 171 185 206 209 216 291 325 351 13 39 46 77 74 43 23 10 1 2 352 342 343 343 343 345 346 343 335 326 322 320 317 314 311 308 304 301 301 300 298 294 291 289 288 286 285 283 280 277 277 276 274 272 272 272 272 272 271 271 271 271 271 271 271 271 270 270 269
54 111 127 125 116 115 115 107 108 117 119 115 112 114 119 119 119 125 125 130 146 148 148 156 157 159 148 134 133 139 151 170 179 180 177 152 78 59 73 84 84 92 99 86 39 25 30 26 359 344 343 343 344 346 344 341 336 330 326 322 321 319 315 310 306 303 301 301 300 296 293 291 288 287 286 286 283 280 278 277 276 273 272 271 271 270 269 269 269 269 270 270 270 271 271 271 270
92 119 129 125 118 117 126 127 117 113 113 106 99 101 110 118 122 132 137 142 150 148 154 165 157 156 141 130 140 145 131 132 136 125 111 102 92 83 83 90 89 82 80 74 53 31 32 33 10 358 358 353 351 351 347 346 345 340 334 328 325 323 319 316 312 309 305 304 303 301 298 295 292 290 288 287 285 283 282 281 279 277 275 273 272 270 268 267 267 268 269 269 269 268 268 269 269
103 117 122 119 113 109 117 127 116 105 106 101 91 89 99 113 129 142 150 153 155 154 171 187 176 168 156 143 149 144 131 124 117 113 109 103 100 96 89 87 83 74 69 64 54 41 34 29 17 13 14 7 2 359 356 355 352 348 344 340 337 334 331 328 324 320 317 313 311 308 305 301 298 295 293 291 288 286 284 283 281 280 278 275 274 272 270 268 266 265 266 266 267 266 265 265 266
118 124 121 113 111 110 112 114 108 99 95 91 88 91 98 119 142 138 134 130 119 117 141 163 165 164 162 151 142 136 129 120 112 111 112 110 106 100 93 88 81 75 70 60 55 53 49 38 25 22 21 17 13 9 5 3 360 357 353 349 346 341 338 334 330 327 324 321 318 315 312 309 306 303 299 296 293 290 287 285 283 280 278 277 275 274 272 270 268 266 264 263 263 263 262 262 262
133 128 120 114 109 107 107 111 107 97 92 88 91 101 116 131 132 119 115 111 108 107 110 122 137 143 145 142 134 132 131 128 122 114 112 114 107 98 96 90 80 75 74 68 61 54 48 40 31 27 23 19 16 12 9 6 3 360 356 352 349 345 341 337 334 331 328 326 323 321 318 315 312 309 305 302 299 296 293 290 287 284 282 279 277 275 274 272 271 268 266 263 261 260 259 259 260
142 131 121 115 114 109 104 106 99 95 105 103 88 89 109 119 118 117 115 109 109 115 113 113 120 126 129 131 129 128 128 126 124 115 111 112 106 100 97 90 82 77 73 67 59 50 42 36 31 26 22 18 14 12 9 6 3 1 358 355 352 349 346 343 340 336 334 331 328 326 323 320 317 314 311 308 305 302 299 296 294 291 288 285 282 279 276 274 272 270 267 265 262 260 259 259 259
139 131 118 116 124 121 105 100 93 87 97 104 101 100 107 111 114 118 120 114 112 119 121 117 118 122 123 124 124 124 120 118 117 112 108 106 101 98 92 84 79 72 65 58 51 44 38 33 27 23 18 15 13 10 8 6 4 2 0 358 356 354 351 348 345 342 339 336 333 330 327 324 321 318 314 311 308 305 303 300 298 295 293 290 287 284 281 278 275 272 270 268 265 263 262 261 260
134 125 114 116 127 123 113 108 97 87 93 101 103 104 107 112 115 117 120 122 118 120 126 125 125 125 124 125 124 121 118 116 112 108 105 100 94 89 83 76 71 63 57 50 43 38 32 27 22 19 16 14 12 10 8 6 4 3 2 0 359 357 355 353 350 347 343 339 335 332 328 325 322 319 315 312 309 306 303 301 298 295 292 290 287 285 283 282 281 279 277 275 272 269 266 265 262
135 124 118 122 121 115 115 113 102 98 105 102 96 102 110 113 115 117 122 127 125 124 126 127 130 129 122 121 119 115 113 110 105 100 96 92 87 80 74 68 62 55 49 44 39 34 29 25 22 19 17 15 13 11 9 7 6 4 3 2 1 360 358 356 353 350 346 342 337 333 328 324 320 316 313 309 306 303 301 299 296 294 291 289 287 285 285 284 283 282 281 280 278 276 272 269 265
138 127 126 132 129 123 124 125 114 110 114 107 99 105 114 116 116 118 121 125 125 122 122 122 124 123 117 115 112 109 108 103 97 93 89 84 78 72 66 60 55 50 47 42 38 34 30 26 23 20 17 15 13 12 10 8 6 5 4 3 2 1 359 357 355 352 349 345 340 334 328 322 318 314 310 307 306 304 302 300 299 297 295 293 291 290 289 287 286 284 282 281 279 278 276 272 269
142 135 140 146 160 167 154 145 144 136 126 116 109 108 115 120 115 112 116 119 120 121 122 120 118 118 117 114 110 107 103 98 92 88 82 76 70 65 61 57 53 50 46 42 37 33 29 25 21 18 16 14 12 11 9 8 6 5 4 3 2 0 359 357 356 354 351 348 344 339 334 328 322 318 314 312 311 309 308 306 304 302 301 299 297 295 293 291 288 286 283 281 279 276 275 272 269
150 149 154 158 169 173 157 148 149 143 132 126 122 119 122 124 113 110 115 116 121 126 125 122 120 119 117 113 110 106 99 92 86 79 74 69 65 62 58 55 52 48 44 40 35 30 27 23 19 16 14 12 11 9 8 7 5 4 3 2 1 360 358 357 356 355 353 351 348 344 340 335 330 325 321 318 316 314 312 311 309 307 306 304 303 301 298 294 291 288 285 283 280 276 273 270 267
158 157 160 163 168 172 162 154 147 138 132 130 129 125 125 126 120 122 123 119 123 126 123 122 121 119 115 111 107 101 93 85 80 74 70 66 62 59 55 52 47 43 40 36 33 30 26 22 19 16 13 12 10 8 7 5 4 3 2 1 360 358 358 357 356 355 354 353 351 348 345 341 336 331 327 323 320 317 316 314 313 312 311 311 309 307 303 299 295 292 289 286 282 278 274 270 266
156 156 159 162 170 172 164 156 147 138 136 133 130 127 125 127 132 142 142 137 137 133 128 125 120 117 112 107 102 95 90 86 80 74 68 62 57 53 49 45 42 39 37 35 32 30 26 23 19 16 13 11 9 8 6 5 3 2 1 359 358 358 357 356 356 356 355 354 353 350 347 344 340 336 331 327 324 322 320 319 319 319 319 319 316 313 308 304 301 297 293 289 285 280 275 270 265
155 159 158 159 168 169 162 155 145 138 141 141 140 138 136 135 139 145 146 147 146 140 134 127 120 115 109 104 102 97 92 88 80 73 65 57 50 46 42 41 39 37 36 33 31 28 24 21 17 13 11 9 8 6 5 4 3 1 360 358 358 357 357 357 356 356 355 354 353 351 349 346 343 339 336 332 330 328 326 326 326 326 326 325 322 318 313 309 305 302 298 293 288 282 276 271 265
162 166 160 158 164 164 159 153 145 140 145 148 148 146 140 141 144 144 143 146 145 139 133 128 120 114 109 106 106 103 97 88 79 68 59 51 44 41 39 38 37 34 31 28 25 23 20 16 13 11 9 8 6 5 4 3 1 360 358 358 357 357 357 357 356 355 354 354 353 352 350 347 345 342 340 337 335 333 332 331 331 332 332 330 326 322 318 314 310 307 302 297 291 284 278 271 264
163 164 164 162 162 160 159 157 154 151 149 146 151 150 138 138 146 142 140 146 146 140 134 128 122 116 114 112 110 104 96 86 73 60 51 45 42 41 37 33 29 26 24 22 20 18 14 11 9 8 7 6 5 4 3 1 359 358 357 357 357 356 356 356 355 354 353 353 353 352 351 349 347 345 343 341 339 337 336 335 335 335 336 334 331 327 323 319 315 312 307 301 294 287 279 272 264
162 163 164 163 161 161 162 162 159 151 146 146 153 153 145 150 157 146 142 149 152 144 136 131 127 123 123 121 116 107 89 73 60 50 46 44 42 38 31 26 22 20 19 17 16 13 10 7 6 5 4 3 3 2 1 360 357 356 356 356 356 355 355 355 354 354 353 353 353 352 352 350 348 346 345 343 342 340 339 338 338 339 340 338 335 332 327 324 321 317 312 306 299 290 282 273 264
165 165 166 165 165 165 165 167 164 155 152 154 159 159 158 164 162 151 150 159 162 154 144 143 142 136 137 132 120 98 69 54 49 47 45 39 35 29 24 19 15 14 14 12 10 8 6 6 4 2 1 360 0 0 359 358 356 355 355 355 355 355 354 354 354 354 353 352 352 352 352 350 349 348 346 345 344 343 341 340 340 342 343 341 339 336 332 329 327 323 317 311 304 295 285 275 265
168 173 172 168 168 168 168 171 169 163 161 163 166 166 163 163 160 162 170 171 172 174 166 163 163 154 149 140 121 76 51 47 45 45 37 28 23 18 15 12 10 10 9 7 5 3 3 3 2 360 358 357 358 357 357 356 355 355 354 354 354 353 353 353 354 353 352 352 352 352 352 351 350 349 348 347 346 345 344 342 343 345 346 344 342 340 337 334 332 329 323 317 310 300 289 277 265
171 180 177 169 168 171 171 172 172 173 176 174 168 164 164 165 167 179 190 185 180 189 191 181 176 171 166 162 149 76 41 39 36 32 23 14 11 10 8 6 5 5 5 2 359 359 0 0 359 357 356 355 355 355 354 354 354 354 354 353 352 352 352 353 353 352 351 351 351 352 352 351 350 349 349 348 348 347 345 344 345 347 348 347 345 344 341 339 337 333 329 323 315 304 291 278 263